Regional Weather Roundup
Issued by NWS

Home | Current Version | Previous Version | Graphics & Text | Print | Product List | Glossary On
Versions: 1 2 3 4 5 6 7 8 9 10 11 12 13 14 15 16 17 18 19 20 21 22 23 24 25 26 27 28 29 30 31 32 33 34 35 36 37 38 39 40 41 42 43 44 45 46 47 48 49 50
000
ASUS45 KSLC 260010
RWRUT

UTAH REGIONAL WEATHER ROUNDUP
NATIONAL WEATHER SERVICE SALT LAKE CITY UT
500 PM MST TUE NOV 25 2014

UTZ001>011-023>025-260100-

NORTHERN UTAH

CITY           SKY/WX    TMP DP  RH WIND       PRES   REMARKS
HILL AFB       CLOUDY    42  32  69 S8        30.29S
LOGAN          CLOUDY    43  32  65 S12       30.26S
OGDEN          CLOUDY    44  32  62 S6        30.29S
PROVO AIRPORT  CLOUDY    37  23  56 CALM      30.35S
SALT LAKE CITY CLOUDY    44  28  53 SE15      30.29F
VERNAL         MOCLDY    39  18  42 CALM      30.15R
WENDOVER       PTCLDY    55  32  41 NW12      30.30R
HEBER CITY     MIX PCPN  34  28  80 CALM      30.32S
WEST JORDAN    CLOUDY    43  30  61 S9        30.32F

$$

UTZ012>022-026-027-260100-

SOUTHERN/CENTRAL UTAH

CITY           SKY/WX    TMP DP  RH WIND       PRES   REMARKS
BLANDING       CLEAR     39   6  26 CALM      30.39S
BRYCE CANYON   CLEAR     41  20  43 NW14      30.37S
CEDAR CITY       N/A     45  13  27 SW8       30.34F
DELTA          CLOUDY    44  22  42 NW5       30.35S
MILFORD        CLEAR     51  17  26 S5        30.33F
MOAB/CYNLANDS  CLEAR     41   9  26 NW6       30.27R
PRICE          MOCLDY    36  14  40 E10       30.26S WCI  28
ST GEORGE      PTCLDY    55  12  18 CALM      30.38F
KANAB          CLEAR     48  12  23 S7        30.39S

$$

REGIONAL REPORTS     COLORADO/ARIZONA

CITY           SKY/WX    TMP DP  RH WIND       PRES   REMARKS
CRAIG, CO      CLOUDY    28  20  71 CALM      30.17R
GRAND JUNCTION CLOUDY    37  16  42 CALM      30.28S
RIFLE          CLOUDY    27  21  78 NE6       30.30S WCI  20
MONTROSE       CLOUDY    35  14  42 CALM      30.31R
CORTEZ         CLEAR     37   5  26 NW8       30.32S WCI  31
PAGE, AZ       CLEAR     49   9  19 NE3       30.33S
GRAND CANYON   CLEAR     46   9  22 NW7       30.40R
KINGMAN        CLEAR     59   4  11 N7        30.37S
FLAGSTAFF      CLEAR     49  11  21 CALM      30.39R

$$

REGIONAL REPORTS    NEVADA/IDAHO/WYOMING

CITY           SKY/WX    TMP DP  RH WIND       PRES   REMARKS
LAS VEGAS, NV  CLEAR     61  13  15 SE6       30.32S
ELY            CLEAR     49  38  65 NW8       30.42S
ELKO           CLEAR     49  30  48 SW9       30.39S
POCATELLO, ID  MOCLDY    48  41  76 SW31G43   30.12F
BURLEY         CLOUDY    51  38  60 W16G24    30.20R
EVANSTON, WY   CLOUDY    31  30  96 SW22G33   30.23R WCI  18
ROCK SPRINGS   CLOUDY    35  27  72 W29G36    30.09R WCI  22

$$


USA.gov is the U.S. government's official web portal to all federal, state and local government web resources and services.